Location: Unspecified
(41.1850°N, 73.2650°W)
Time: 20:31:34
(UTC+00:00)

Cosmos 1937 Rocket - Pass Details

Date: 14 December 2025
Orbit: 743 x 775 km, 74.0° (Epoch: 12 January)

Event Time Altitude Azimuth Distance (km) Brightness Sun altitude
Rises 23:21:45 0° 211° (SSW) 3,200 7.4 -21.2°
Reaches altitude 10° 23:24:10 10° 216° (SW) 2,274 6.6 -21.6°
Maximum altitude 23:29:12 52° 293° (WNW) 928 4.2 -22.6°
Enters shadow 23:32:56 18° 5° (N) 1,801 5.2 -23.2°
